Kasan FAA Web Cam AK US FAA-ALASKA current weather conditions

sailwx.info

Wind from 150 at 1 knots

Air temperature 11.7° C
Dewpoint 8.3° C

Last reported at 2020-Aug-12 05:50 UTC.
Time now 2020-Aug-12 06:49 UTC

Location: N 55°32' W 132°24'.
View on Google Maps.

See reports from other nearby stations

  
Tides and Currents Weather Stations Pressure Air Temp Water Temp Dewpoint Dewpoint Depression Visibility Wind Speed Wind Dir Waves Ship Positions
date/time (UTC)wind fromknots sea level pressurealtimeterstation pressurevisibilityair tempwater tempwave heightnotes
2020-Aug-12 05:50 150 1 11.7
2020-Aug-12 05:40 049 2 12.0
2020-Aug-12 05:30 292 1 12.1
2020-Aug-12 05:20 318 1 12.4
2020-Aug-12 05:10 331 1 12.6
2020-Aug-12 05:00 256 1 12.7
2020-Aug-12 04:50 262 0 12.9
2020-Aug-12 04:40 218 0 13.1
2020-Aug-12 04:30 340 0 13.5
2020-Aug-12 04:20 013 1 13.8
2020-Aug-12 04:10 323 3 14.1
2020-Aug-12 04:00 352 1 14.3
2020-Aug-12 03:50 060 0 14.5
2020-Aug-12 03:40 218 0 14.4
2020-Aug-12 03:30 031 0 14.5
2020-Aug-12 03:20 039 1 14.8
2020-Aug-12 03:10 074 0 15.0
2020-Aug-12 03:00 328 3 15.3
2020-Aug-12 02:50 316 0 15.8
2020-Aug-12 02:40 251 1 16.4
2020-Aug-12 02:30 095 0 16.5
2020-Aug-12 02:20 244 2 16.4
2020-Aug-12 02:10 333 2 16.4
2020-Aug-12 02:00 332 1 16.4
2020-Aug-12 01:50 267 0 16.4
2020-Aug-12 01:40 287 0 16.4
2020-Aug-12 01:30 269 0 16.2
2020-Aug-12 01:20 224 0 16.1
2020-Aug-12 01:10 302 0 16.0
2020-Aug-12 01:00 332 2 15.7
2020-Aug-12 00:50 347 0 15.7
2020-Aug-12 00:40 209 1 15.7
2020-Aug-12 00:30 172 1 15.7
2020-Aug-12 00:20 156 2 15.6
2020-Aug-12 00:10 185 3 15.8
2020-Aug-12 00:00 182 4 15.8
2020-Aug-11 23:50 234 1 16.0
2020-Aug-11 23:40 306 0 15.6
2020-Aug-11 23:30 301 1 15.1
2020-Aug-11 23:20 283 1 15.2
2020-Aug-11 23:10 330 1 15.0
2020-Aug-11 23:00 335 1 14.4
2020-Aug-11 22:50 324 1 14.5
2020-Aug-11 22:40 052 0 14.4
2020-Aug-11 22:30 342 1 14.9
2020-Aug-11 22:20 006 2 15.1
2020-Aug-11 22:10 333 1 15.4
2020-Aug-11 22:00 214 2 15.8
2020-Aug-11 21:50 224 2 15.6
2020-Aug-11 21:40 206 4 15.5
2020-Aug-11 21:30 274 0 15.2
2020-Aug-11 21:20 004 1 14.8
2020-Aug-11 21:10 351 1 15.0
2020-Aug-11 21:00 149 1 15.3
2020-Aug-11 20:50 086 0 15.3
2020-Aug-11 20:40 338 3 14.9
2020-Aug-11 20:30 067 0 14.5
2020-Aug-11 20:20 311 1 14.3
2020-Aug-11 20:10 196 3 14.6
2020-Aug-11 20:00 174 3 14.5
2020-Aug-11 19:50 166 3 14.1
2020-Aug-11 19:40 168 2 13.6
2020-Aug-11 19:30 201 2 13.6
2020-Aug-11 19:20 336 0 13.1
2020-Aug-11 19:10 342 2 13.1
2020-Aug-11 19:00 210 1 13.0
2020-Aug-11 18:50 227 2 12.7
2020-Aug-11 18:40 216 2 12.6
2020-Aug-11 18:30 170 0 12.3
2020-Aug-11 18:20 233 2 12.4
2020-Aug-11 18:10 196 0 12.0
2020-Aug-11 18:00 245 1 11.7
2020-Aug-11 17:50 201 1 11.8
2020-Aug-11 17:40 256 0 11.8
2020-Aug-11 17:30 216 2 12.0
2020-Aug-11 17:20 247 2 11.7
2020-Aug-11 17:10 207 4 11.8
2020-Aug-11 17:00 258 1 11.4
2020-Aug-11 16:50 329 0 11.2
2020-Aug-11 16:40 312 1 11.1
2020-Aug-11 16:30 007 2 11.1
2020-Aug-11 16:20 323 2 10.9
2020-Aug-11 16:10 005 0 10.9
2020-Aug-11 16:00 248 0 10.8
2020-Aug-11 15:50 180 1 10.7
2020-Aug-11 15:40 155 1 10.8
2020-Aug-11 15:30 326 0 10.7
2020-Aug-11 15:20 344 0 10.6
2020-Aug-11 15:10 297 0 10.7
2020-Aug-11 15:00 241 0 10.5
2020-Aug-11 14:50 356 0 10.5
2020-Aug-11 14:40 318 0 10.5
2020-Aug-11 14:30 112 0 10.5
2020-Aug-11 14:20 150 0 10.6
2020-Aug-11 14:10 230 0 10.5
2020-Aug-11 14:00 074 0 10.5
2020-Aug-11 13:50 009 1 10.5
2020-Aug-11 13:40 331 2 10.5
2020-Aug-11 13:30 347 0 10.6
2020-Aug-11 13:20 337 1 10.6
2020-Aug-11 13:10 327 1 10.7
2020-Aug-11 13:00 332 1 10.8
2020-Aug-11 12:50 315 2 10.8
2020-Aug-11 12:40 10.9
2020-Aug-11 12:30 066 0 10.8
2020-Aug-11 12:20 301 0 10.7
2020-Aug-11 12:10 351 1 10.8
2020-Aug-11 12:00 010 1 10.8
2020-Aug-11 11:50 340 1 10.7
2020-Aug-11 11:40 335 2 10.9
2020-Aug-11 11:30 006 1 10.8
2020-Aug-11 11:20 327 1 10.9
2020-Aug-11 11:10 264 0 10.9
2020-Aug-11 11:00 357 0 11.0
2020-Aug-11 10:50 10.9
2020-Aug-11 10:40 332 2 11.0
2020-Aug-11 10:30 004 1 11.0
2020-Aug-11 10:20 011 2 11.1
2020-Aug-11 10:10 063 1 10.9
2020-Aug-11 10:00 050 0 11.0
2020-Aug-11 09:50 028 0 11.0
2020-Aug-11 09:40 325 2 10.9
2020-Aug-11 09:30 327 2 11.0
2020-Aug-11 09:20 335 1 11.0
2020-Aug-11 09:10 341 1 11.1
2020-Aug-11 09:00 332 1 11.2
2020-Aug-11 08:50 339 1 11.2
2020-Aug-11 08:40 355 1 11.3
2020-Aug-11 08:30 336 1 11.3
2020-Aug-11 08:20 320 2 11.4
2020-Aug-11 08:10 019 2 11.4
2020-Aug-11 08:00 060 2 11.4
2020-Aug-11 07:50 313 1 11.5
2020-Aug-11 07:40 033 0 11.5
2020-Aug-11 07:30 037 1 11.5
2020-Aug-11 07:20 010 0 11.6
2020-Aug-11 07:10 014 0 11.6
2020-Aug-11 07:00 079 0 11.5
2020-Aug-11 06:50 006 1 11.4
2020-Aug-11 06:40 334 2 11.6
2020-Aug-11 06:30 038 1 11.5
2020-Aug-11 06:20 058 1 11.6
2020-Aug-11 06:10 060 2 11.6
2020-Aug-11 06:00 006 1 11.6
2020-Aug-11 05:50 051 1 11.6
2020-Aug-11 05:40 342 0 11.4
2020-Aug-11 05:30 330 1 11.5
2020-Aug-11 05:20 014 1 11.6
2020-Aug-11 05:10 339 1 11.6
2020-Aug-11 05:00 353 1 11.7
2020-Aug-11 04:50 007 1 11.7
2020-Aug-11 04:40 337 1 11.9
2020-Aug-11 04:30 326 1 11.9
2020-Aug-11 04:20 320 1 11.9
2020-Aug-11 04:10 343 1 12.0
2020-Aug-11 04:00 011 1 12.1
2020-Aug-11 03:50 027 0 12.2
2020-Aug-11 03:40 078 1 12.3
2020-Aug-11 03:30 187 0 12.3
2020-Aug-11 03:20 029 1 12.3
2020-Aug-11 03:10 337 3 12.3
2020-Aug-11 03:00 325 0 12.2
2020-Aug-11 02:50 002 1 12.2
2020-Aug-11 02:40 070 1 12.1
2020-Aug-11 02:30 107 0 12.0
2020-Aug-11 02:20 008 0 12.3
2020-Aug-11 02:10 352 1 12.3
2020-Aug-11 02:00 001 3 12.4
2020-Aug-11 01:50 010 0 12.6
2020-Aug-11 01:40 320 2 12.7
2020-Aug-11 01:30 037 2 12.8
2020-Aug-11 01:20 065 2 12.9
2020-Aug-11 01:10 256 2 13.1
2020-Aug-11 01:00 326 1 13.2
2020-Aug-11 00:50 178 0 13.1
2020-Aug-11 00:40 029 1 13.0
2020-Aug-11 00:30 018 0 12.9
2020-Aug-11 00:20 285 1 12.9
2020-Aug-11 00:10 046 1 12.8
2020-Aug-11 00:00 009 1 12.6
2020-Aug-10 23:50 071 1 12.8
2020-Aug-10 23:40 023 2 13.2
2020-Aug-10 23:30 057 1 13.7
2020-Aug-10 23:20 318 1 13.9
2020-Aug-10 23:10 088 1 13.7
2020-Aug-10 23:00 110 0 13.8
2020-Aug-10 22:50 101 0 13.9
2020-Aug-10 22:40 057 1 13.9
2020-Aug-10 22:30 263 2 13.9
2020-Aug-10 22:20 099 3 13.9
2020-Aug-10 22:10 148 4 13.9
2020-Aug-10 22:00 140 3 13.7
2020-Aug-10 21:50 162 2 13.5
2020-Aug-10 21:40 157 1 13.7
2020-Aug-10 21:30 197 4 13.6
2020-Aug-10 21:20 194 3 13.9
2020-Aug-10 21:10 185 2 13.7
2020-Aug-10 21:00 125 3 13.7
2020-Aug-10 20:50 123 1 13.8
2020-Aug-10 20:40 087 1 13.7
2020-Aug-10 20:30 159 2 13.5
2020-Aug-10 20:20 039 0 13.3
2020-Aug-10 20:10 145 6 13.2
2020-Aug-10 20:00 118 1 13.2
2020-Aug-10 19:50 174 2 13.1
2020-Aug-10 19:40 188 2 13.0
2020-Aug-10 19:30 181 2 13.1
2020-Aug-10 19:20 154 2 13.1
2020-Aug-10 19:10 136 2 13.1
2020-Aug-10 19:00 179 5 13.1
2020-Aug-10 18:50 143 2 13.1
2020-Aug-10 18:40 152 1 13.0
2020-Aug-10 18:30 159 1 12.9
2020-Aug-10 18:20 259 0 12.9
2020-Aug-10 18:10 172 3 12.8
2020-Aug-10 18:00 093 1 12.6
2020-Aug-10 17:50 121 1 12.5
2020-Aug-10 17:40 154 0 12.5
2020-Aug-10 17:30 176 4 12.3
2020-Aug-10 17:20 148 1 12.5
2020-Aug-10 17:10 086 0 12.4
2020-Aug-10 17:00 336 1 12.6
2020-Aug-10 16:50 015 1 12.5
2020-Aug-10 16:40 340 1 12.5
2020-Aug-10 16:30 353 1 12.6
2020-Aug-10 16:20 326 1 12.8
2020-Aug-10 16:10 175 1 12.7
2020-Aug-10 16:00 009 1 12.7
2020-Aug-10 15:50 354 2 12.8
2020-Aug-10 15:40 131 0 12.7
2020-Aug-10 15:30 139 1 12.6
2020-Aug-10 15:20 054 1 12.7
2020-Aug-10 15:10 160 4 12.3
2020-Aug-10 15:00 345 0 12.1
2020-Aug-10 14:50 029 0 12.2
2020-Aug-10 14:40 335 1 12.1
2020-Aug-10 13:50 069 4 12.2
2020-Aug-10 13:40 296 2 12.6
2020-Aug-10 13:20 348 1 12.1
2020-Aug-10 13:10 311 1 11.7
2020-Aug-10 13:00 182 0 11.7
2020-Aug-10 12:50 042 1 11.8
2020-Aug-10 12:40 086 3 12.0
2020-Aug-10 12:30 153 4 12.1
2020-Aug-10 12:20 101 4 12.2
2020-Aug-10 12:10 176 2 12.2
2020-Aug-10 12:00 055 0 12.3
2020-Aug-10 11:50 110 0 12.5
2020-Aug-10 11:40 167 6 12.5
2020-Aug-10 11:30 211 0 12.6
2020-Aug-10 11:20 184 1 12.5
2020-Aug-10 11:10 091 4 12.4
2020-Aug-10 11:00 166 3 12.7
2020-Aug-10 10:50 153 4 12.8
2020-Aug-10 10:40 077 2 12.8
2020-Aug-10 10:30 149 1 13.0
2020-Aug-10 10:20 161 3 13.2
2020-Aug-10 10:10 126 2 13.0
2020-Aug-10 10:00 144 5 13.2
2020-Aug-10 09:50 160 7 13.1
2020-Aug-10 09:40 168 7 12.5
2020-Aug-10 09:30 167 6 12.6
2020-Aug-10 09:20 158 5 12.9
2020-Aug-10 09:10 161 4 12.5
2020-Aug-10 09:00 168 6 12.7
2020-Aug-10 08:50 168 6 13.1
2020-Aug-10 08:40 170 7 12.9
2020-Aug-10 08:30 179 6 12.7
2020-Aug-10 08:20 159 6 12.8
2020-Aug-10 08:10 123 4 13.1
2020-Aug-10 08:00 112 1 13.3
2020-Aug-10 07:50 189 2 13.7
2020-Aug-10 07:40 172 5 13.6
2020-Aug-10 07:30 167 10 13.7
2020-Aug-10 07:20 107 2 13.6
2020-Aug-10 07:10 154 7 13.4
2020-Aug-10 07:00 143 3 13.6
2020-Aug-10 06:50 162 7 13.2
2020-Aug-10 06:40 176 2 13.2
2020-Aug-10 06:30 115 1 13.2
2020-Aug-10 06:20 089 0 13.5
2020-Aug-10 06:10 068 3 13.0
2020-Aug-10 06:00 182 5 13.2